Time,TemperatureF,DewpointF,PressureIn,WindDirection,WindDirectionDegrees,WindSpeedMPH,WindSpeedGustMPH,Humidity,HourlyPrecipIn,Conditions,Clouds,dailyrainin,SoftwareType,DateUTC
2013-02-07 00:02:00,42.0,-99.9,-100.00,SSE,167,7.0,-999.0,-999,0.00,,,0.00,,2013-02-07 06:02:00,
2013-02-07 00:11:00,42.0,-99.9,-100.00,SSE,167,7.0,-999.0,-999,0.00,,,0.00,,2013-02-07 06:11:00,
2013-02-07 00:22:00,42.0,-99.9,-100.00,SSE,167,7.0,-999.0,-999,0.00,,,0.00,,2013-02-07 06:22:00,
2013-02-07 00:32:00,42.0,-99.9,-100.00,SSE,159,5.0,-999.0,-999,0.00,,,0.00,,2013-02-07 06:32:00,
2013-02-07 00:43:00,42.0,-99.9,-100.00,SSE,159,5.0,-999.0,-999,0.00,,,0.00,,2013-02-07 06:43:00,
2013-02-07 00:53:00,42.0,-99.9,-100.00,SSE,159,5.0,-999.0,-999,0.00,,,0.00,,2013-02-07 06:53:00,
2013-02-07 01:02:00,42.0,-99.9,-100.00,SW,219,2.0,-999.0,-999,0.00,,,-99.99,,2013-02-07 07:02:00,
2013-02-07 01:12:00,42.0,-99.9,-100.00,SW,219,2.0,-999.0,-999,0.00,,,-99.99,,2013-02-07 07:12:00,
2013-02-07 01:22:00,42.0,-99.9,-100.00,SW,219,2.0,-999.0,-999,0.00,,,-99.99,,2013-02-07 07:22:00,
2013-02-07 01:32:00,41.0,-99.9,-100.00,SE,138,7.0,-999.0,-999,0.00,,,0.00,,2013-02-07 07:32:00,
2013-02-07 01:42:00,41.0,-99.9,-100.00,SE,138,7.0,-999.0,-999,0.00,,,0.00,,2013-02-07 07:42:00,
2013-02-07 01:53:00,41.0,-99.9,-100.00,SE,138,7.0,-999.0,-999,0.00,,,0.00,,2013-02-07 07:53:00,
2013-02-07 02:02:00,41.0,-99.9,-100.00,South,172,4.0,-999.0,-999,0.00,,,0.00,,2013-02-07 08:02:00,
2013-02-07 02:11:00,41.0,-99.9,-100.00,South,172,4.0,-999.0,-999,0.00,,,0.00,,2013-02-07 08:11:00,
2013-02-07 02:22:00,41.0,-99.9,-100.00,South,172,4.0,-999.0,-999,0.00,,,0.00,,2013-02-07 08:22:00,
2013-02-07 02:32:00,41.0,-99.9,-100.00,SSE,153,6.0,-999.0,-999,0.00,,,0.00,,2013-02-07 08:32:00,
2013-02-07 02:42:00,41.0,-99.9,-100.00,SSE,153,6.0,-999.0,-999,0.00,,,0.00,,2013-02-07 08:42:00,
2013-02-07 02:52:00,41.0,-99.9,-100.00,SSE,153,6.0,-999.0,-999,0.00,,,0.00,,2013-02-07 08:52:00,
2013-02-07 03:02:00,41.0,-99.9,-100.00,South,169,5.0,-999.0,-999,0.00,,,0.00,,2013-02-07 09:02:00,
2013-02-07 03:12:00,41.0,-99.9,-100.00,South,169,5.0,-999.0,-999,0.00,,,0.00,,2013-02-07 09:12:00,
2013-02-07 03:22:00,41.0,-99.9,-100.00,South,169,5.0,-999.0,-999,0.00,,,0.00,,2013-02-07 09:22:00,
2013-02-07 03:32:00,43.0,-99.9,-100.00,South,188,10.0,-999.0,-999,0.02,,,0.02,,2013-02-07 09:32:00,
2013-02-07 03:42:00,43.0,-99.9,-100.00,South,188,10.0,-999.0,-999,0.02,,,0.02,,2013-02-07 09:42:00,
2013-02-07 03:52:00,43.0,-99.9,-100.00,South,188,10.0,-999.0,-999,0.02,,,0.02,,2013-02-07 09:52:00,
2013-02-07 04:02:00,41.0,-99.9,-100.00,SSE,157,7.0,-999.0,-999,0.02,,,0.02,,2013-02-07 10:02:00,
2013-02-07 04:11:00,41.0,-99.9,-100.00,SSE,157,7.0,-999.0,-999,0.02,,,0.02,,2013-02-07 10:11:00,
2013-02-07 04:22:00,41.0,-99.9,-100.00,SSE,157,7.0,-999.0,-999,0.02,,,0.02,,2013-02-07 10:22:00,
2013-02-07 04:32:00,41.0,-99.9,-100.00,SSE,164,6.0,-999.0,-999,0.01,,,0.03,,2013-02-07 10:32:00,
2013-02-07 04:42:00,41.0,-99.9,-100.00,SSE,164,6.0,-999.0,-999,0.01,,,0.03,,2013-02-07 10:42:00,
2013-02-07 04:52:00,41.0,-99.9,-100.00,SSE,164,6.0,-999.0,-999,0.01,,,0.03,,2013-02-07 10:52:00,
2013-02-07 05:02:00,41.0,-99.9,-100.00,NNW,333,3.0,-999.0,-999,0.01,,,0.03,,2013-02-07 11:02:00,
2013-02-07 05:12:00,41.0,-99.9,-100.00,NNW,333,3.0,-999.0,-999,0.01,,,0.03,,2013-02-07 11:12:00,
2013-02-07 05:23:00,41.0,-99.9,-100.00,NNW,333,3.0,-999.0,-999,0.01,,,0.03,,2013-02-07 11:23:00,
2013-02-07 05:32:00,40.0,-99.9,-100.00,NNE,29,2.0,-999.0,-999,0.00,,,0.03,,2013-02-07 11:32:00,
2013-02-07 05:44:00,40.0,-99.9,-100.00,NNE,29,2.0,-999.0,-999,0.00,,,0.03,,2013-02-07 11:44:00,
2013-02-07 05:53:00,40.0,-99.9,-100.00,NNE,29,2.0,-999.0,-999,0.00,,,0.03,,2013-02-07 11:53:00,
2013-02-07 06:02:00,41.0,-99.9,-100.00,SE,134,5.0,-999.0,-999,0.00,,,0.03,,2013-02-07 12:02:00,
2013-02-07 06:12:00,41.0,-99.9,-100.00,SE,134,5.0,-999.0,-999,0.00,,,0.03,,2013-02-07 12:12:00,
2013-02-07 06:22:00,41.0,-99.9,-100.00,SE,134,5.0,-999.0,-999,0.00,,,0.03,,2013-02-07 12:22:00,
2013-02-07 06:33:00,41.0,-99.9,-100.00,SE,138,5.0,-999.0,-999,0.00,,,0.03,,2013-02-07 12:33:00,
2013-02-07 06:42:00,41.0,-99.9,-100.00,SE,138,5.0,-999.0,-999,0.00,,,0.03,,2013-02-07 12:42:00,
2013-02-07 06:53:00,41.0,-99.9,-100.00,SE,138,5.0,-999.0,-999,0.00,,,0.03,,2013-02-07 12:53:00,
2013-02-07 07:03:00,41.0,-99.9,-100.00,SE,138,3.0,-999.0,-999,0.00,,,0.03,,2013-02-07 13:03:00,
2013-02-07 07:12:00,41.0,-99.9,-100.00,SE,138,3.0,-999.0,-999,0.00,,,0.03,,2013-02-07 13:12:00,
2013-02-07 07:22:00,41.0,-99.9,-100.00,SE,138,3.0,-999.0,-999,0.00,,,0.03,,2013-02-07 13:22:00,
2013-02-07 07:33:00,40.0,-99.9,-100.00,SE,140,3.0,-999.0,-999,0.01,,,0.04,,2013-02-07 13:33:00,
2013-02-07 07:42:00,40.0,-99.9,-100.00,SE,140,3.0,-999.0,-999,0.01,,,0.04,,2013-02-07 13:42:00,
2013-02-07 07:52:00,40.0,-99.9,-100.00,SE,140,3.0,-999.0,-999,0.01,,,0.04,,2013-02-07 13:52:00,
2013-02-07 08:02:00,39.0,-99.9,-100.00,SSE,155,2.0,-999.0,-999,0.04,,,0.07,,2013-02-07 14:02:00,
2013-02-07 08:12:00,39.0,-99.9,-100.00,SSE,155,2.0,-999.0,-999,0.04,,,0.07,,2013-02-07 14:12:00,
2013-02-07 08:22:00,39.0,-99.9,-100.00,SSE,155,2.0,-999.0,-999,0.04,,,0.07,,2013-02-07 14:22:00,
2013-02-07 08:32:00,38.0,-99.9,-100.00,SSE,161,3.0,-999.0,-999,0.05,,,0.09,,2013-02-07 14:32:00,
2013-02-07 08:42:00,38.0,-99.9,-100.00,SSE,161,3.0,-999.0,-999,0.05,,,0.09,,2013-02-07 14:42:00,
2013-02-07 08:52:00,38.0,-99.9,-100.00,SSE,161,3.0,-999.0,-999,0.05,,,0.09,,2013-02-07 14:52:00,
2013-02-07 09:02:00,39.0,-99.9,-100.00,SE,146,3.0,-999.0,-999,0.04,,,0.11,,2013-02-07 15:02:00,
2013-02-07 09:11:00,39.0,-99.9,-100.00,SE,146,3.0,-999.0,-999,0.04,,,0.11,,2013-02-07 15:11:00,
2013-02-07 09:22:00,39.0,-99.9,-100.00,SE,146,3.0,-999.0,-999,0.04,,,0.11,,2013-02-07 15:22:00,
2013-02-07 09:32:00,39.0,-99.9,-100.00,SSE,149,4.0,-999.0,-999,0.05,,,0.14,,2013-02-07 15:32:00,
2013-02-07 09:42:00,39.0,-99.9,-100.00,SSE,149,4.0,-999.0,-999,0.05,,,0.14,,2013-02-07 15:42:00,
2013-02-07 09:53:00,39.0,-99.9,-100.00,SSE,149,4.0,-999.0,-999,0.05,,,0.14,,2013-02-07 15:53:00,
2013-02-07 10:02:00,39.0,-99.9,-100.00,SE,137,6.0,-999.0,-999,0.04,,,0.15,,2013-02-07 16:02:00,
2013-02-07 10:11:00,39.0,-99.9,-100.00,SE,137,6.0,-999.0,-999,0.04,,,0.15,,2013-02-07 16:11:00,
2013-02-07 10:22:00,39.0,-99.9,-100.00,SE,137,6.0,-999.0,-999,0.04,,,0.15,,2013-02-07 16:22:00,
2013-02-07 10:32:00,39.0,-99.9,-100.00,SE,146,6.0,-999.0,-999,0.02,,,0.16,,2013-02-07 16:32:00,
2013-02-07 10:42:00,39.0,-99.9,-100.00,SE,146,6.0,-999.0,-999,0.02,,,0.16,,2013-02-07 16:42:00,
2013-02-07 10:52:00,39.0,-99.9,-100.00,SE,146,6.0,-999.0,-999,0.02,,,0.16,,2013-02-07 16:52:00,
2013-02-07 11:01:00,39.0,-99.9,-100.00,SSE,157,5.0,-999.0,-999,0.01,,,0.16,,2013-02-07 17:01:00,
2013-02-07 11:11:00,39.0,-99.9,-100.00,SSE,157,5.0,-999.0,-999,0.01,,,0.16,,2013-02-07 17:11:00,
2013-02-07 11:22:00,39.0,-99.9,-100.00,SSE,157,5.0,-999.0,-999,0.01,,,0.16,,2013-02-07 17:22:00,
2013-02-07 11:32:00,39.0,-99.9,-100.00,SSE,160,5.0,-999.0,-999,0.03,,,0.19,,2013-02-07 17:32:00,
2013-02-07 11:43:00,39.0,-99.9,-100.00,SSE,160,5.0,-999.0,-999,0.03,,,0.19,,2013-02-07 17:43:00,
2013-02-07 11:52:00,39.0,-99.9,-100.00,SSE,160,5.0,-999.0,-999,0.03,,,0.19,,2013-02-07 17:52:00,
2013-02-07 12:02:00,39.0,-99.9,-100.00,SSE,162,4.0,-999.0,-999,0.04,,,0.20,,2013-02-07 18:02:00,
2013-02-07 12:12:00,39.0,-99.9,-100.00,SSE,162,4.0,-999.0,-999,0.04,,,0.20,,2013-02-07 18:12:00,
2013-02-07 12:23:00,39.0,-99.9,-100.00,SSE,162,4.0,-999.0,-999,0.04,,,0.20,,2013-02-07 18:23:00,
2013-02-07 12:32:00,39.0,-99.9,-100.00,SSE,147,3.0,-999.0,-999,0.04,,,0.23,,2013-02-07 18:32:00,
2013-02-07 12:42:00,39.0,-99.9,-100.00,SSE,147,3.0,-999.0,-999,0.04,,,0.23,,2013-02-07 18:42:00,
2013-02-07 12:52:00,39.0,-99.9,-100.00,SSE,147,3.0,-999.0,-999,0.04,,,0.23,,2013-02-07 18:52:00,
2013-02-07 13:02:00,39.0,-99.9,-100.00,SSE,155,3.0,-999.0,-999,0.05,,,0.25,,2013-02-07 19:02:00,
2013-02-07 13:11:00,39.0,-99.9,-100.00,SSE,155,3.0,-999.0,-999,0.05,,,0.25,,2013-02-07 19:11:00,
2013-02-07 13:22:00,39.0,-99.9,-100.00,SSE,155,3.0,-999.0,-999,0.05,,,0.25,,2013-02-07 19:22:00,
2013-02-07 13:32:00,39.0,-99.9,-100.00,SSE,161,3.0,-999.0,-999,0.05,,,0.28,,2013-02-07 19:32:00,
2013-02-07 13:42:00,39.0,-99.9,-100.00,SSE,161,3.0,-999.0,-999,0.05,,,0.28,,2013-02-07 19:42:00,
2013-02-07 13:52:00,39.0,-99.9,-100.00,SSE,161,3.0,-999.0,-999,0.05,,,0.28,,2013-02-07 19:52:00,
2013-02-07 14:01:00,40.0,-99.9,-100.00,SSE,164,1.0,-999.0,-999,0.06,,,-99.99,,2013-02-07 20:01:00,
2013-02-07 14:11:00,40.0,-99.9,-100.00,SSE,164,1.0,-999.0,-999,0.06,,,-99.99,,2013-02-07 20:11:00,
2013-02-07 14:22:00,40.0,-99.9,-100.00,SSE,164,1.0,-999.0,-999,0.06,,,-99.99,,2013-02-07 20:22:00,
2013-02-07 14:32:00,38.0,-99.9,-100.00,SW,234,0.0,-999.0,-999,0.04,,,0.32,,2013-02-07 20:32:00,
2013-02-07 14:42:00,38.0,-99.9,-100.00,SW,234,0.0,-999.0,-999,0.04,,,0.32,,2013-02-07 20:42:00,
2013-02-07 14:52:00,38.0,-99.9,-100.00,SW,234,0.0,-999.0,-999,0.04,,,0.32,,2013-02-07 20:52:00,
2013-02-07 15:02:00,39.0,-99.9,-100.00,West,273,1.0,-999.0,-999,0.02,,,0.33,,2013-02-07 21:02:00,
2013-02-07 15:11:00,39.0,-99.9,-100.00,West,273,1.0,-999.0,-999,0.02,,,0.33,,2013-02-07 21:11:00,
2013-02-07 15:22:00,39.0,-99.9,-100.00,West,273,1.0,-999.0,-999,0.02,,,0.33,,2013-02-07 21:22:00,
2013-02-07 15:32:00,40.0,-99.9,-100.00,West,273,0.0,-999.0,-999,0.01,,,0.33,,2013-02-07 21:32:00,
2013-02-07 15:42:00,40.0,-99.9,-100.00,West,273,0.0,-999.0,-999,0.01,,,0.33,,2013-02-07 21:42:00,
2013-02-07 15:52:00,40.0,-99.9,-100.00,West,273,0.0,-999.0,-999,0.01,,,0.33,,2013-02-07 21:52:00,
2013-02-07 16:02:00,40.0,-99.9,-100.00,NW,318,3.0,-999.0,-999,0.00,,,0.33,,2013-02-07 22:02:00,
2013-02-07 16:11:00,40.0,-99.9,-100.00,NW,318,3.0,-999.0,-999,0.00,,,0.33,,2013-02-07 22:11:00,
2013-02-07 16:22:00,40.0,-99.9,-100.00,NW,318,3.0,-999.0,-999,0.00,,,0.33,,2013-02-07 22:22:00,
2013-02-07 16:32:00,41.0,-99.9,-100.00,NW,313,4.0,-999.0,-999,0.00,,,0.33,,2013-02-07 22:32:00,
2013-02-07 16:42:00,41.0,-99.9,-100.00,NW,313,4.0,-999.0,-999,0.00,,,0.33,,2013-02-07 22:42:00,
2013-02-07 16:52:00,41.0,-99.9,-100.00,NW,313,4.0,-999.0,-999,0.00,,,0.33,,2013-02-07 22:52:00,
2013-02-07 17:02:00,42.0,-99.9,-100.00,NW,319,6.0,-999.0,-999,0.00,,,0.33,,2013-02-07 23:02:00,
2013-02-07 17:11:00,42.0,-99.9,-100.00,NW,319,6.0,-999.0,-999,0.00,,,0.33,,2013-02-07 23:11:00,
2013-02-07 17:22:00,42.0,-99.9,-100.00,NW,319,6.0,-999.0,-999,0.00,,,0.33,,2013-02-07 23:22:00,
2013-02-07 17:32:00,42.0,-99.9,-100.00,NW,317,12.0,-999.0,-999,0.00,,,0.33,,2013-02-07 23:32:00,
2013-02-07 17:42:00,42.0,-99.9,-100.00,NW,317,12.0,-999.0,-999,0.00,,,0.33,,2013-02-07 23:42:00,
2013-02-07 17:52:00,42.0,-99.9,-100.00,NW,317,12.0,-999.0,-999,0.00,,,0.33,,2013-02-07 23:52:00,
2013-02-07 18:02:00,41.0,-99.9,-100.00,NNW,327,12.0,-999.0,-999,0.00,,,0.33,,2013-02-08 00:02:00,
2013-02-07 18:11:00,41.0,-99.9,-100.00,NNW,327,12.0,-999.0,-999,0.00,,,0.33,,2013-02-08 00:11:00,
2013-02-07 18:22:00,41.0,-99.9,-100.00,NNW,327,12.0,-999.0,-999,0.00,,,0.33,,2013-02-08 00:22:00,
2013-02-07 18:32:00,40.0,-99.9,-100.00,NNW,329,14.0,-999.0,-999,0.01,,,0.34,,2013-02-08 00:32:00,
2013-02-07 18:42:00,40.0,-99.9,-100.00,NNW,329,14.0,-999.0,-999,0.01,,,0.34,,2013-02-08 00:42:00,
2013-02-07 18:53:00,40.0,-99.9,-100.00,NNW,329,14.0,-999.0,-999,0.01,,,0.34,,2013-02-08 00:53:00,
2013-02-07 19:02:00,38.0,-99.9,-100.00,NW,318,13.0,-999.0,-999,0.01,,,0.34,,2013-02-08 01:02:00,
2013-02-07 19:11:00,38.0,-99.9,-100.00,NW,318,13.0,-999.0,-999,0.01,,,0.34,,2013-02-08 01:11:00,
2013-02-07 19:22:00,38.0,-99.9,-100.00,NW,318,13.0,-999.0,-999,0.01,,,0.34,,2013-02-08 01:22:00,
2013-02-07 19:32:00,37.0,-99.9,-100.00,NNW,341,10.0,-999.0,-999,0.00,,,0.34,,2013-02-08 01:32:00,
2013-02-07 19:42:00,37.0,-99.9,-100.00,NNW,341,10.0,-999.0,-999,0.00,,,0.34,,2013-02-08 01:42:00,
2013-02-07 19:52:00,37.0,-99.9,-100.00,NNW,341,10.0,-999.0,-999,0.00,,,0.34,,2013-02-08 01:52:00,
2013-02-07 20:01:00,37.0,-99.9,-100.00,NNW,327,11.0,-999.0,-999,0.00,,,0.34,,2013-02-08 02:01:00,
2013-02-07 20:11:00,37.0,-99.9,-100.00,NNW,327,11.0,-999.0,-999,0.00,,,0.34,,2013-02-08 02:11:00,
2013-02-07 20:22:00,37.0,-99.9,-100.00,NNW,327,11.0,-999.0,-999,0.00,,,0.34,,2013-02-08 02:22:00,
2013-02-07 20:32:00,36.0,-99.9,-100.00,NW,315,14.0,-999.0,-999,0.00,,,0.34,,2013-02-08 02:32:00,
2013-02-07 20:42:00,36.0,-99.9,-100.00,NW,315,14.0,-999.0,-999,0.00,,,0.34,,2013-02-08 02:42:00,
2013-02-07 20:53:00,36.0,-99.9,-100.00,NW,315,14.0,-999.0,-999,0.00,,,0.34,,2013-02-08 02:53:00,
2013-02-07 21:02:00,36.0,-99.9,-100.00,NW,323,12.0,-999.0,-999,0.00,,,0.34,,2013-02-08 03:02:00,
2013-02-07 21:12:00,36.0,-99.9,-100.00,NW,323,12.0,-999.0,-999,0.00,,,0.34,,2013-02-08 03:12:00,
2013-02-07 21:23:00,36.0,-99.9,-100.00,NW,323,12.0,-999.0,-999,0.00,,,0.34,,2013-02-08 03:23:00,
2013-02-07 21:32:00,35.0,-99.9,-100.00,NW,320,12.0,-999.0,-999,0.00,,,0.34,,2013-02-08 03:32:00,
2013-02-07 21:42:00,35.0,-99.9,-100.00,NW,320,12.0,-999.0,-999,0.00,,,0.34,,2013-02-08 03:42:00,
2013-02-07 21:52:00,35.0,-99.9,-100.00,NW,320,12.0,-999.0,-999,0.00,,,0.34,,2013-02-08 03:52:00,
2013-02-07 22:02:00,35.0,-99.9,-100.00,NW,316,10.0,-999.0,-999,0.00,,,0.34,,2013-02-08 04:02:00,
2013-02-07 22:11:00,35.0,-99.9,-100.00,NW,316,10.0,-999.0,-999,0.00,,,0.34,,2013-02-08 04:11:00,
2013-02-07 22:22:00,35.0,-99.9,-100.00,NW,316,10.0,-999.0,-999,0.00,,,0.34,,2013-02-08 04:22:00,
2013-02-07 22:32:00,35.0,-99.9,-100.00,NW,326,13.0,-999.0,-999,0.00,,,0.34,,2013-02-08 04:32:00,
2013-02-07 22:42:00,35.0,-99.9,-100.00,NW,326,13.0,-999.0,-999,0.00,,,0.34,,2013-02-08 04:42:00,
2013-02-07 22:52:00,35.0,-99.9,-100.00,NW,326,13.0,-999.0,-999,0.00,,,0.34,,2013-02-08 04:52:00,
2013-02-07 23:02:00,34.0,-99.9,-100.00,NNW,338,8.0,-999.0,-999,0.00,,,0.34,,2013-02-08 05:02:00,
2013-02-07 23:12:00,34.0,-99.9,-100.00,NNW,338,8.0,-999.0,-999,0.00,,,0.34,,2013-02-08 05:12:00,
2013-02-07 23:22:00,34.0,-99.9,-100.00,NNW,338,8.0,-999.0,-999,0.00,,,0.34,,2013-02-08 05:22:00,
2013-02-07 23:32:00,34.0,-99.9,-100.00,NNW,338,7.0,-999.0,-999,0.00,,,0.34,,2013-02-08 05:32:00,
2013-02-07 23:42:00,34.0,-99.9,-100.00,NNW,338,7.0,-999.0,-999,0.00,,,0.34,,2013-02-08 05:42:00,
2013-02-07 23:52:00,34.0,-99.9,-100.00,NNW,338,7.0,-999.0,-999,0.00,,,0.34,,2013-02-08 05:52:00,